TimeICT,TemperatureF,Dew PointF,Humidity,Sea Level PressureIn,VisibilityMPH,Wind Direction,Wind SpeedMPH,Gust SpeedMPH,PrecipitationIn,Events,Conditions,WindDirDegrees,DateUTC
12:00 AM,80.6,75.2,84,29.89,5.6,WNW,10.4,-,N/A,,Mostly Cloudy,290,2012-10-04 17:00:00
12:30 AM,80.6,75.2,84,29.89,5.6,WNW,9.2,-,N/A,,Mostly Cloudy,290,2012-10-04 17:30:00
1:00 AM,82,77,79,29.83,6,WNW,3.5,,,,Scattered Clouds,290,2012-10-04 18:00:00
1:00 AM,80.6,75.2,84,29.86,5.6,NNW,5.8,-,N/A,,Mostly Cloudy,330,2012-10-04 18:00:00
1:30 AM,78.8,75.2,89,29.86,5.6,NW,4.6,-,N/A,,Mostly Cloudy,310,2012-10-04 18:30:00
2:00 AM,78.8,75.2,89,29.86,1.2,West,18.4,-,N/A,Rain,Rain,260,2012-10-04 19:00:00
2:30 AM,78.8,73.4,83,29.86,4.3,WSW,6.9,-,N/A,,Mostly Cloudy,250,2012-10-04 19:30:00
3:30 AM,77.0,69.8,78,29.86,5.0,WNW,10.4,-,N/A,,Mostly Cloudy,290,2012-10-04 20:30:00
4:00 AM,77.0,71.6,83,29.86,5.0,NW,5.8,-,N/A,,Mostly Cloudy,310,2012-10-04 21:00:00
4:30 AM,75.2,71.6,89,29.86,5.0,Calm,Calm,-,N/A,,Mostly Cloudy,0,2012-10-04 21:30:00
5:00 AM,75.2,73.4,94,29.83,5.0,Calm,Calm,-,N/A,,Mostly Cloudy,0,2012-10-04 22:00:00
5:30 AM,77.0,73.4,89,29.83,5.0,WNW,3.5,-,N/A,,Mostly Cloudy,290,2012-10-04 22:30:00
6:00 AM,77.0,73.4,89,29.86,5.0,WNW,4.6,-,N/A,,Mostly Cloudy,290,2012-10-04 23:00:00
6:30 AM,78.8,73.4,83,29.89,0.6,WNW,5.8,17.3,N/A,Rain,Heavy Rain,300,2012-10-04 23:30:00
7:00 AM,77,74,89,29.85,4,Calm,Calm,,,Rain,Light Rain,,2012-10-05 00:00:00
7:00 AM,77.0,71.6,83,29.89,4.3,West,11.5,-,N/A,,Mostly Cloudy,280,2012-10-05 00:00:00
7:30 AM,77.0,71.6,83,29.89,5.0,NNW,3.5,-,N/A,,Mostly Cloudy,330,2012-10-05 00:30:00
8:00 AM,77.0,73.4,89,29.92,5.6,Variable,2.3,-,N/A,,Mostly Cloudy,0,2012-10-05 01:00:00
8:30 AM,80.6,73.4,79,29.92,5.0,West,4.6,-,N/A,,Mostly Cloudy,270,2012-10-05 01:30:00
9:00 AM,80.6,75.2,84,29.95,5.0,WSW,8.1,-,N/A,,Mostly Cloudy,250,2012-10-05 02:00:00
9:30 AM,82.4,75.2,79,29.95,5.0,West,8.1,-,N/A,,Mostly Cloudy,280,2012-10-05 02:30:00
10:00 AM,84.2,75.2,74,29.95,5.0,West,10.4,-,N/A,,Mostly Cloudy,280,2012-10-05 03:00:00
10:30 AM,84.2,73.4,70,29.95,4.3,West,11.5,-,N/A,,Mostly Cloudy,260,2012-10-05 03:30:00
11:00 AM,80.6,75.2,84,29.95,4.3,West,10.4,-,N/A,,Mostly Cloudy,270,2012-10-05 04:00:00
11:30 AM,82.4,73.4,74,29.92,2.5,NNW,11.5,-,N/A,Rain,Rain,330,2012-10-05 04:30:00
12:00 PM,78.8,75.2,89,29.95,0.5,West,26.5,-,N/A,Rain,Heavy Rain,270,2012-10-05 05:00:00
12:30 PM,77.0,73.4,89,29.92,3.1,West,15.0,-,N/A,Rain,Rain,270,2012-10-05 05:30:00
1:00 PM,78,76,93,29.87,6,West,15.0,,,Rain,Light Rain,280,2012-10-05 06:00:00
1:00 PM,78.8,73.4,83,29.89,5.0,WNW,11.5,-,N/A,,Mostly Cloudy,290,2012-10-05 06:00:00
1:30 PM,78.8,73.4,83,29.86,5.0,West,10.4,-,N/A,Rain,Light Rain,270,2012-10-05 06:30:00
2:00 PM,80.6,71.6,74,29.86,5.6,West,8.1,-,N/A,,Mostly Cloudy,280,2012-10-05 07:00:00
2:30 PM,80.6,71.6,74,29.83,5.6,West,11.5,-,N/A,,Mostly Cloudy,270,2012-10-05 07:30:00
3:00 PM,80.6,71.6,74,29.83,5.6,WNW,11.5,-,N/A,,Mostly Cloudy,290,2012-10-05 08:00:00
3:30 PM,80.6,73.4,79,29.83,5.6,West,10.4,-,N/A,,Mostly Cloudy,280,2012-10-05 08:30:00
4:00 PM,80.6,73.4,79,29.83,5.6,WNW,8.1,-,N/A,,Mostly Cloudy,290,2012-10-05 09:00:00
4:30 PM,80.6,73.4,79,29.83,5.6,WNW,6.9,-,N/A,,Mostly Cloudy,300,2012-10-05 09:30:00
5:00 PM,80.6,73.4,79,29.83,5.6,West,8.1,-,N/A,,Mostly Cloudy,280,2012-10-05 10:00:00
5:30 PM,80.6,73.4,79,29.83,5.6,WNW,9.2,-,N/A,,Mostly Cloudy,290,2012-10-05 10:30:00
6:00 PM,78.8,73.4,83,29.83,5.6,WNW,6.9,-,N/A,,Mostly Cloudy,290,2012-10-05 11:00:00
6:30 PM,78.8,73.4,83,29.83,5.6,WNW,6.9,-,N/A,,Mostly Cloudy,290,2012-10-05 11:30:00
7:00 PM,81,74,74,29.80,6,West,5.8,,,,Partly Cloudy,280,2012-10-05 12:00:00
7:00 PM,78.8,73.4,83,29.86,5.6,WNW,6.9,-,N/A,,Mostly Cloudy,290,2012-10-05 12:00:00
7:30 PM,78.8,73.4,83,29.86,5.6,WNW,4.6,-,N/A,,Mostly Cloudy,300,2012-10-05 12:30:00
8:00 PM,78.8,73.4,83,29.86,5.6,WNW,3.5,-,N/A,,Mostly Cloudy,300,2012-10-05 13:00:00
8:30 PM,77.0,73.4,89,29.89,6.2,WNW,3.5,-,N/A,,Scattered Clouds,300,2012-10-05 13:30:00
9:00 PM,75.2,73.4,94,29.89,6.2,WNW,6.9,-,N/A,,Scattered Clouds,290,2012-10-05 14:00:00
9:30 PM,75.2,73.4,94,29.89,6.2,Calm,Calm,-,N/A,,Scattered Clouds,0,2012-10-05 14:30:00
10:00 PM,77.0,73.4,89,29.92,6.2,Calm,Calm,-,N/A,,Scattered Clouds,0,2012-10-05 15:00:00
10:30 PM,75.2,73.4,94,29.92,6.2,Calm,Calm,-,N/A,,Scattered Clouds,0,2012-10-05 15:30:00
11:00 PM,75.2,73.4,94,29.92,6.2,Calm,Calm,-,N/A,,Mostly Cloudy,0,2012-10-05 16:00:00
11:30 PM,75.2,73.4,94,29.92,6.2,Calm,Calm,-,N/A,,Mostly Cloudy,0,2012-10-05 16:30:00